Flag for Norway Weather past 2 weeks in Langevåg, Norway

Now
52 °F

Partly sunny.


Feels Like: 47 °F
Forecast: 44 / 54 °F
Wind: 16 mph from North

Location: Alesund / Vigra

Current Time: Sep 21, 2014 at 6:36:31 PM

Latest Report: Sep 21, 2014 at 5:50 PM


Visibility: N/A

Pressure: 30.07 "Hg

Humidity: 62%

Dew point: 39 °F

Location of LangevågLocation

Historic Weather in Langevåg — Graph

°F

Langevåg temperature yesterday

Maximum temperature yesterday: 59 °F (at 3:20 PM)
Minimum temperature yesterday: 54 °F (at 3:20 AM)
Average temperature yesterday: 55 °F

Past Weeks' High & Low Weather Summary

 TemperatureHumidityPressure
High70 °F (Sep 7, 12:50 PM)100% (Sep 6, 10:20 PM)30.48 "Hg (Sep 6, 10:20 PM)
Low45 °F (Sep 16, 4:50 AM)54% (Sep 21, 12:50 PM)29.80 "Hg (Sep 8, 8:50 AM)
Average56 °F86%30.15 "Hg
* Reported Sep 6 5:20 PM — Sep 21 5:20 PM, Langevåg, Weather by CustomWeather, © 2014

Note: Actual official high and low records may vary slightly from our data, if they occured in-between our weather recording intervals... More about our weather records

Advertising

Langevåg weather history for previous 24 hours

 ConditionsComfort  
Time TempWeatherWind HumidityBarometerVisibility
5:20 PM
Sep 21
50 °FBroken clouds.10 mph71%30.07 "HgN/A
4:50 PM54 °FScattered showers. Broken clouds.12 mph67%30.07 "HgN/A
4:20 PM52 °FScattered showers. Scattered clouds.12 mph67%30.07 "HgN/A
3:50 PM50 °FScattered showers. Broken clouds.9 mph76%30.07 "HgN/A
3:20 PM50 °FLight rain. Partly sunny.16 mph82%30.07 "HgN/A
2:50 PM52 °FBroken clouds.12 mph72%30.07 "HgN/A
2:20 PM50 °FBroken clouds.6 mph76%30.07 "HgN/A
1:50 PM48 °FSprinkles. Partly sunny.15 mph76%30.07 "HgN/A
1:20 PM52 °FSprinkles. Broken clouds.17 mph72%30.07 "HgN/A
12:50 PM54 °FPartly sunny.12 mph54%30.04 "HgN/A
12:20 PM52 °FBroken clouds.7 mph62%30.04 "HgN/A
11:50 AM52 °FBroken clouds.15 mph62%30.04 "HgN/A
11:20 AM54 °FBroken clouds.13 mph63%30.04 "HgN/A
10:50 AM54 °FBroken clouds.16 mph63%30.04 "HgN/A
10:20 AM54 °FPartly sunny.14 mph67%30.04 "HgN/A
9:50 AM54 °FScattered clouds.13 mph67%30.01 "HgN/A
9:20 AM54 °FBroken clouds.12 mph67%30.01 "HgN/A
8:50 AM54 °FScattered clouds.13 mph72%29.98 "HgN/A
8:20 AM54 °FPartly sunny.14 mph77%29.98 "HgN/A
7:50 AM54 °FPassing clouds.17 mph67%29.98 "HgN/A
7:20 AM54 °FPassing clouds.16 mph77%29.98 "HgN/A
6:50 AM54 °FPassing clouds.15 mph77%29.95 "HgN/A
6:20 AM54 °FPartly cloudy.16 mph82%29.95 "HgN/A
5:50 AM52 °FPartly cloudy.18 mph94%29.95 "HgN/A
5:20 AM54 °FDrizzle. Overcast.18 mph88%29.92 "Hg3 mi
4:50 AM54 °FMostly cloudy.16 mph88%29.92 "HgN/A
4:20 AM54 °FMostly cloudy.14 mph88%29.92 "HgN/A
3:50 AM54 °FPassing clouds.9 mph94%29.92 "HgN/A
3:20 AM54 °FRain. Partly cloudy.9 mph88%29.92 "Hg2 mi
2:50 AM54 °FLight rain. Mostly cloudy.9 mph82%29.89 "HgN/A
1:50 AM54 °FPartly cloudy.8 mph82%29.92 "HgN/A
12:50 AM54 °FPartly cloudy.9 mph82%29.89 "HgN/A
11:50 PM
Sep 20
54 °FPartly cloudy.7 mph94%29.89 "HgN/A
10:50 PM54 °FLight rain. Passing clouds.8 mph88%29.89 "HgN/A
10:20 PM54 °FPassing clouds.9 mph88%29.89 "HgN/A
9:50 PM54 °FLight rain. Partly cloudy.7 mph88%29.89 "HgN/A
9:20 PM55 °FPassing clouds.14 mph82%29.89 "HgN/A
8:50 PM55 °FPassing clouds.9 mph82%29.89 "HgN/A
8:20 PM55 °FPartly sunny.8 mph82%29.89 "HgN/A
7:50 PM55 °FBroken clouds.8 mph82%29.89 "HgN/A
Weather by CustomWeather, © 2014

See weather overviewHow to use our weather pages